Location: Unspecified
(0.0000°N, 0.0000°E)
Time: 12:13:35
(UTC+02:00)

GPS 2-12 Rocket1 - Visible Passes

Search period start: 22 September 2014 00:00
Search period end: 02 October 2014 00:00
Orbit: 592 x 660 km, 20.0° (Epoch: 20 September)

Date Brightness Start Highest point End Pass type
(mag) Time Alt. Az. Time Alt. Az. Time Alt. Az.
24 Sep 5.6 21:31:28 10° N 21:31:58 11° N 21:31:58 11° N visible
25 Sep 5.6 21:48:19 10° NNW 21:49:00 12° NNW 21:49:00 12° NNW visible
26 Sep 5.4 20:24:49 10° N 20:25:42 11° NNE 20:26:35 10° NNE visible
26 Sep 5.8 22:05:44 10° NW 22:06:05 12° NW 22:06:05 12° NW visible
27 Sep 5.0 20:41:16 10° NNW 20:44:06 16° NNE 20:46:04 13° NE visible
28 Sep 4.3 20:58:36 10° NW 21:02:23 26° NNE 21:03:15 24° NE visible
29 Sep 5.6 07:25:27 10° SSW 07:27:46 13° SSE 07:30:04 10° SE visible
29 Sep 3.5 21:16:16 10° NW 21:20:28 43° NNE 21:20:28 43° NNE visible
30 Sep 3.6 21:34:12 10° WNW 21:37:44 54° NW 21:37:44 54° NW visible
01 Oct 5.6 06:18:10 10° SSW 06:20:20 13° SSE 06:22:30 10° SE visible
01 Oct 3.7 20:09:04 10° NW 20:13:16 40° NNE 20:17:31 10° E visible
01 Oct 4.7 21:52:27 10° W 21:55:02 32° W 21:55:02 32° W visible
